Погода в Смидовиче

Погода в Смидовиче : погода сейчас, прогноз погоды и архив. Всё, что Вы хотите узнать о погоде в Смидовиче!

Поиск расширенной информации на нашем сайте:

Другие новости

Новости СМИ2

Главная страница сайта

Новости сайта

03.07.2017

Напоминаем, что на нашем специализированном сайте Метеоцентр.Азия вы можете получить высокодетализированные автоматические прогнозы погоды по пунктам России, СНГ и мира в авиационном формате (включающие направление и скорость ветра, видимость, явления погоды, количество и форму облачности, нижнюю и верхнюю границу облачности).


Погода в Смидовиче - сегодня

Время (UTC), дата Ветер
(°,м/с) 
Видим.   Явления Облачность Т
(°С)
Тd
(°С)
f(%) Тe
(°С)
Pmin
(гПа)
dP
(гПа)
Po
(мм)
O2
(г/м3)
Тmin Tmax R s Состояние
почвы
18 15.04.18 тихо ()   20000 м    ясно 
-0.8 -6.6 65 -1  1008.4  0.2  751  304           
00 16.04.18 320 (СЗ) 20000 м    ясно 
+6.1 -4.7 46 +6  1008.9  1.1  752  297  -4.5         
03 16.04.18 250 (З) 20000 м    ясно 
+13.5 -8.3 21 +13  1008  -0.4  752  289           
06 16.04.18 210 (ЮЗ) 5{10}  20000 м    ясно 
+15.2 -7.8 20 +15  1006.6  -1.5  750  287           
12 16.04.18 230 (ЮЗ) 4{11}  20000 м    ясно 
+7.1 -2.3 51 +6  1008.7  2.4  752  296           
15 16.04.18 220 (ЮЗ) 20000 м    ясно 
+5.1 -2.1 60 +4  1009.4  0.6  752  298           
18 16.04.18 000 (С) 20000 м    3/0 
+2 -3.4 67 +1  1010.1  0.4  753  301           
00 17.04.18 170 (Ю) 20000 м    10/4 600 м кучево-дожд., верхняя 
[Cb cap|Ci fib]
+9.3 -2.2 44 +8  1008.5  -0.9  752  293           
03 17.04.18 180 (Ю) 20000 м    8/4 600 м кучево-дожд., верхняя 
[Cb cap|Ci fib]
+13.8 +0.1 39 +13  1006.8  -1.5  751  288           
06 17.04.18 200 (Ю) 5{10}  20000 м    10/8 600 м кучево-дожд., средняя 
[Cb cap|Ac lent]
+15.1 +2.5 43 +15  1005.4  -1.4  750  286           
12 17.04.18 210 (ЮЗ) 20000 м    8/4 600 м кучево-дожд., средняя, верхняя 
[Cb cap|Ac lent|Ci fib]
+8.6 +4.6 76 +9  1006.2  0.9  750  292           
15 17.04.18 160 (Ю) 20000 м    10/8 600 м кучево-дожд., средняя 
[Cb cap|Ac lent]
+5.5 +3 84 +5  1005.8  -0.4  750  296           
18 17.04.18 180 (Ю) 20000 м    10/10 600 м кучево-дожд. 
[Cb cap]
+7.6 +3.4 75 +7  1005.6  -0.2  750  293           
21 17.04.18 180 (Ю) 20000 м  {ливн. осадки}  10/10 600 м кучево-дожд. 
[Cb cap]
+6.9 +3.3 78 +6  1006.3  0.7  750  294  +5.5    0.0    влажная 
00 18.04.18 160 (Ю) 20000 м  в посл. час ливневой дождь  10/6 600 м кучево-дожд., средняя 
[Cb cap|Ac As]
+7.5 +4.9 84 +7  1006.7  0.4  750  294           
03 18.04.18 190 (Ю) 20000 м    4/0 верхняя 
[Ci]
+15.6 +6.3 54 +16  1006.1  -0.4  750  285           
06 18.04.18 200 (Ю) 20000 м    6/0 средняя, верхняя 
[Ac lent|Ci]
+19.1 +5.6 41 +19  1004.2  -1.9  749  281           
12 18.04.18 240 (ЮЗ) 20000 м    10/0 средняя, верхняя 
[Ac cast|Ci]
+7.6 -0.5 56 +8  1005.5  1.3  750  294           
15 18.04.18 300 (СЗ) 20000 м    10/0 верхняя 
[Ci]
+9.8 -8.7 26 +9  1006.4  0.9  750  293           
18 18.04.18 010 (С) 20000 м    10/0 верхняя 
[Ci]
+4.3 +2 85 +4  1007.3  0.9  751  298           
00 19.04.18 080 (В) 20000 м    10/0 средняя, верхняя 
[Ac trans|Ci fib]
+8.6 +4.7 76 +8  1008.8  0.9  752  293           
03 19.04.18 060 (СВ) 20000 м    10/0 средняя, верхняя 
[Ac trans|Ci fib]
+14.6 +5.7 55 +15  1008.2  -0.4  752  287           
06 19.04.18 320 (СЗ) 20000 м    10/0 верхняя 
[Ci fib]
+17.5 +3.3 39 +18  1007.1  -1.1  751  284           
12 19.04.18 220 (ЮЗ) 20000 м    ясно 
+7.6 +3.7 76 +8  1009.6  2.5  753  294           
15 19.04.18 220 (ЮЗ) 20000 м    ясно 
+5.7 +2.1 78 +5  1009.3  -0.4  752  297           
Время (UTC), дата Ветер
(°,м/с) 
Видим.   Явления Облачность Т
(°С)
Тd
(°С)
f(%) Тe
(°С)
Pmin
(гПа)
dP
(гПа)
Po
(мм)
O2
(г/м3)
Тmin Tmax R s Состояние
почвы

Для получения пояснительной информации подведите курсор к названию столбца.

ПОГОДА в Смидовиче - архив

Всё, что Вы хотите узнать о погоде в Смидовиче - удобно и подробно!

Выберите нужную дату (начиная с 1 января 2015* года) и нажмите кнопку "Найти".
Будут отображены архивные сводки погоды по пункту Смидович, начиная с указанной даты.


Отображать данные в формате CSV (для использования в таблицах Excel)


Внимание! Наш архив погоды предназначен исключительно для личного некоммерческого использования в познавательных целях. Если Вам необходимы официальные справки о состоянии погоды (для производственных, юридических, коммерческих и т.п. целей), обращайтесь в органы Росгидромета.

*Примечание: данная дата относится к архиву по метеостанциям СССР (Россия, СНГ, Балтия).
Архив по метеостанциям Зарубежной Европы и Азии (кроме Китая) хранится 10 дней, по другим регионам земного шара (Китай, Африка, Америка, Австралия, Океания) - 1 день.

Смидович - район местоположения метеостанции


Название, широта, долгота, высота метеостанции:
Смидович 48.6°ш. 133.8°д. 52 м над ур. моря [Российская Федерация]

Дополнительная информация

В oтличие oт бoльшинства пoгoдных сайтoв мы публикуем пoдрoбную метеoинфoрмацию в детальнoм прoфессиoнальнoм фoрмате.

Характеристики температуры и влажнoсти вoздуха измеряются на высoте 2 м в тени вдали oт зданий и деревьев.
Скoрoсть ветра измеряется на высoте 10 м (на урoвне рoста челoвека скoрoсть ветра ниже в 1.5-2 раза). Если метеoстанция нахoдится в гoрoде или в лесу, тo скoрoсть ветра занижена на 2-4 м/с пo сравнению с oткрытым местoм. Скoрoсть ветра над акватoриями крупных рек и oзёр, а также на вершинах хoлмoв на 2-5 м/с выше, чем в oбычных услoвиях.
Атмoсфернoе давление в разных тoчках местнoсти мoжет значительнo oтличаться oт давления на метеoстанции, в зависимoсти oт услoвий рельефа (при пoдъёме на 10 м давление пoнижается примернo на 1 мм рт.ст.).